User: anonymous   Login
Location: Unspecified
(0.0000°N, 0.0000°E)
Time: 12:20:38
(UTC+00:00)
Language:

FORMOSAT 3E - Orbit

View from above orbital plane
View from above orbital plane
View from above satellite
View from above satellite

Ground track
Ground track

The orbit data is extracted from the following two-line orbital elements,

1 29051U 06011E   21015.76833018  .00000034  00000-0  29244-4 0  9992
2 29051  72.0055  21.7942 0070673 277.4559  81.8551 14.28861211772485
Epoch (UTC): 15 January 2021 18:26:23
Eccentricity: 0.0070673
inclination: 72.0055°
perigee height: 745 km
apogee height: 846 km
right ascension of ascending node: 21.7942°
argument of perigee: 277.4559°
revolutions per day: 14.28861211
mean anomaly at epoch: 81.8551°
orbit number at epoch: 77248

The dashed part of the orbit path shows where the satellite is in the earth's shadow,  

DLR